DAL837 PHOG-KSEA

Flight info

Callsign DAL837
Flight time N/A
Altitude 39000
Route APACK R463 AUNTI A332 HELOP 40N136W 43N131W SEDAR LATAY HAWKZ8
Aircraft A333/H-SDE3GHIJ2J3J5M1RVWXY/LB2D1

Departure

Time 2026-05-08 23:34
Airport Kahului International Airport (PHOG)

Arrival

Time N/A
Airport Seattle–Tacoma International Airport (KSEA)
Time Latitude Longitude Altitude Speed Heading
2026-05-08 22:53 20.89529 -156.43494 62 ft 0 kts 302°
2026-05-08 23:22 20.89523 -156.43484 63 ft 2 kts 309°
2026-05-08 23:22 20.89514 -156.43472 63 ft 2 kts 318°
2026-05-08 23:22 20.89502 -156.43462 64 ft 2 kts 326°
2026-05-08 23:22 20.89489 -156.43454 65 ft 2 kts 334°
2026-05-08 23:23 20.89475 -156.43448 66 ft 2 kts 343°
2026-05-08 23:23 20.89461 -156.43443 67 ft 2 kts 351°
2026-05-08 23:23 20.89446 -156.43442 68 ft 2 kts 360°
2026-05-08 23:23 20.89431 -156.43443 69 ft 2 kts
2026-05-08 23:24 20.89417 -156.43445 70 ft 1 kts 10°
2026-05-08 23:24 20.89416 -156.43445 70 ft 0 kts 10°
2026-05-08 23:29 20.89420 -156.43445 70 ft 2 kts 10°
2026-05-08 23:29 20.89450 -156.43446 68 ft 4 kts 319°
2026-05-08 23:30 20.89439 -156.43468 69 ft 2 kts 205°
2026-05-08 23:30 20.89435 -156.43469 69 ft 0 kts 205°
2026-05-08 23:30 20.89426 -156.43474 70 ft 6 kts 205°
2026-05-08 23:30 20.89349 -156.43498 76 ft 15 kts 196°
2026-05-08 23:31 20.89221 -156.43567 79 ft 23 kts 214°
2026-05-08 23:31 20.89201 -156.43582 79 ft 0 kts 214°
2026-05-08 23:31 20.89188 -156.43591 79 ft 10 kts 214°
2026-05-08 23:32 20.89100 -156.43655 79 ft 13 kts 214°
2026-05-08 23:32 20.89062 -156.43683 79 ft 13 kts 214°
2026-05-08 23:32 20.88971 -156.43675 81 ft 13 kts 130°
2026-05-08 23:32 20.88963 -156.43599 83 ft 9 kts 44°
2026-05-08 23:33 20.88977 -156.43588 83 ft 0 kts 34°
2026-05-08 23:33 20.89012 -156.43564 84 ft 23 kts 34°
2026-05-08 23:34 20.89336 -156.43327 77 ft 90 kts 35°
2026-05-08 23:34 20.90035 -156.42810 46 ft 149 kts 34°
2026-05-08 23:34 20.90926 -156.42163 604 ft 146 kts 33°
2026-05-08 23:34 20.91876 -156.41888 1046 ft 154 kts 352°
2026-05-08 23:35 20.92899 -156.42333 1557 ft 163 kts 343°
2026-05-08 23:35 20.94006 -156.42610 1996 ft 166 kts 355°
2026-05-08 23:35 20.95233 -156.42725 2153 ft 189 kts 359°
2026-05-08 23:35 20.96600 -156.42755 2548 ft 203 kts
2026-05-08 23:36 20.98063 -156.42740 2952 ft 218 kts
2026-05-08 23:36 20.99665 -156.42700 3360 ft 235 kts
2026-05-08 23:36 21.01363 -156.42645 3768 ft 252 kts
2026-05-08 23:36 21.03179 -156.42584 4263 ft 266 kts
2026-05-08 23:37 21.05047 -156.42522 4990 ft 269 kts
2026-05-08 23:37 21.06934 -156.42456 5652 ft 275 kts
2026-05-08 23:37 21.08874 -156.42389 6333 ft 281 kts
2026-05-08 23:37 21.10819 -156.42322 7091 ft 283 kts
2026-05-08 23:38 21.12819 -156.42253 7769 ft 287 kts
2026-05-08 23:38 21.14809 -156.42184 8427 ft 292 kts
2026-05-08 23:38 21.16855 -156.42113 9080 ft 295 kts
2026-05-08 23:38 21.18920 -156.42042 9681 ft 300 kts
2026-05-08 23:39 21.21039 -156.41969 10291 ft 304 kts
2026-05-08 23:39 21.23191 -156.41895 10573 ft 320 kts
2026-05-08 23:39 21.25529 -156.41814 10768 ft 339 kts
2026-05-08 23:39 21.27920 -156.41730 10963 ft 356 kts
2026-05-08 23:40 21.30479 -156.41643 11153 ft 372 kts
2026-05-08 23:40 21.33104 -156.41551 11521 ft 380 kts
2026-05-08 23:40 21.35775 -156.41458 12142 ft 380 kts
2026-05-08 23:40 21.38429 -156.41367 12593 ft 385 kts
2026-05-08 23:41 21.41136 -156.41273 13107 ft 386 kts
2026-05-08 23:41 21.43782 -156.40652 13534 ft 390 kts 17°
2026-05-08 23:41 21.46378 -156.39793 14009 ft 393 kts 17°
2026-05-08 23:41 21.49029 -156.38902 14436 ft 397 kts 17°
2026-05-08 23:42 21.51665 -156.38010 14860 ft 401 kts 17°
2026-05-08 23:42 21.54349 -156.37097 15322 ft 403 kts 17°
2026-05-08 23:42 21.57036 -156.36185 15707 ft 407 kts 17°
2026-05-08 23:42 21.59761 -156.35257 16166 ft 409 kts 17°
2026-05-08 23:43 21.62503 -156.34323 16556 ft 413 kts 17°
2026-05-08 23:43 21.65273 -156.33379 16961 ft 416 kts 17°
2026-05-08 23:43 21.68023 -156.32443 17332 ft 420 kts 17°
2026-05-08 23:43 21.70833 -156.31483 17799 ft 421 kts 17°
2026-05-08 23:44 21.73656 -156.30521 18136 ft 425 kts 17°
2026-05-08 23:44 21.76478 -156.29558 18577 ft 426 kts 17°
2026-05-08 23:44 21.79310 -156.28590 18933 ft 429 kts 17°
2026-05-08 23:44 21.82169 -156.27615 19373 ft 430 kts 17°
2026-05-08 23:45 21.85084 -156.26619 19662 ft 435 kts 17°
2026-05-08 23:45 21.87960 -156.25636 20117 ft 435 kts 17°
2026-05-08 23:45 21.90876 -156.24637 20469 ft 437 kts 17°
2026-05-08 23:45 21.93787 -156.23642 20802 ft 440 kts 16°
2026-05-08 23:46 21.96730 -156.22635 21154 ft 442 kts 16°
2026-05-08 23:46 21.99658 -156.21632 21478 ft 444 kts 16°
2026-05-08 23:46 22.02616 -156.20619 21792 ft 447 kts 16°
2026-05-08 23:46 22.05605 -156.19595 22198 ft 447 kts 16°
2026-05-08 23:47 22.08568 -156.18579 22427 ft 451 kts 16°
2026-05-08 23:47 22.11597 -156.17540 22774 ft 452 kts 16°
2026-05-08 23:47 22.14591 -156.16513 23060 ft 454 kts 15°
2026-05-08 23:47 22.17640 -156.15463 23299 ft 457 kts 15°
2026-05-08 23:48 22.20667 -156.14427 23576 ft 459 kts 15°
2026-05-08 23:48 22.23731 -156.13373 23858 ft 461 kts 15°
2026-05-08 23:48 22.26796 -156.12320 24117 ft 463 kts 15°
2026-05-08 23:48 22.29877 -156.11259 24358 ft 466 kts 15°
2026-05-08 23:49 22.32983 -156.10191 24633 ft 468 kts 15°
2026-05-08 23:49 22.36080 -156.09125 24922 ft 469 kts 15°
2026-05-08 23:49 22.39206 -156.08048 25201 ft 471 kts 15°
2026-05-08 23:49 22.42350 -156.06964 25431 ft 474 kts 14°
2026-05-08 23:50 22.45491 -156.05881 25718 ft 476 kts 14°
2026-05-08 23:50 22.48662 -156.04788 26014 ft 477 kts 14°
2026-05-08 23:50 22.51848 -156.03688 26226 ft 480 kts 14°
2026-05-08 23:50 22.55043 -156.02586 26509 ft 481 kts 14°